Flag for U.S.A. Weather past 2 weeks in Winston-Salem, North Carolina, U.S.A.

Now
46 °F

Passing clouds.


Feels Like: 46 °F
Forecast: 44 / 60 °F
Wind: No wind

Location: Smith Reynolds Airport

Current Time: Oct 22, 2014 at 6:07:01 AM

Latest Report: Oct 22, 2014 at 4:54 AM


Visibility: 10 mi

Pressure: 29.98 "Hg

Humidity: 73%

Dew point: 38 °F

Location of Winston-SalemLocation

Historic Weather in Winston-Salem — Graph

°F

Winston-Salem temperature yesterday

Maximum temperature yesterday: 71 °F (at 2:54 PM)
Minimum temperature yesterday: 49 °F (at 6:54 AM)
Average temperature yesterday: 60 °F

Past Weeks' High & Low Weather Summary

 TemperatureHumidityPressure
High83 °F (Oct 8, 3:54 PM)97% (Oct 11, 3:58 AM)30.27 "Hg (Oct 11, 3:58 AM)
Low41 °F (Oct 20, 5:54 AM)28% (Oct 8, 4:54 PM)29.77 "Hg (Oct 16, 4:54 AM)
Average63 °F70%30.00 "Hg
* Reported Oct 7 4:54 AM — Oct 22 4:54 AM, Winston-Salem, Weather by CustomWeather, © 2014

Note: Actual official high and low records may vary slightly from our data, if they occured in-between our weather recording intervals... More about our weather records

Advertising

Winston-Salem weather history for previous 24 hours

 ConditionsComfort  
Time TempWeatherWind HumidityBarometerVisibility
4:54 AM
Oct 22
46 °FPassing clouds.No wind73%29.98 "Hg10 mi
3:54 AM48 °FClear.3 mph68%29.97 "Hg10 mi
2:54 AM50 °FClear.8 mph63%29.96 "Hg10 mi
1:54 AM50 °FClear.5 mph61%29.97 "Hg10 mi
12:54 AM50 °FClear.No wind63%29.98 "Hg10 mi
11:54 PM
Oct 21
52 °FClear.7 mph57%29.98 "Hg10 mi
10:54 PM53 °FClear.9 mph55%29.99 "Hg10 mi
9:54 PM54 °FClear.12 mph55%29.99 "Hg10 mi
8:54 PM58 °FClear.13 mph44%29.96 "Hg10 mi
7:54 PM60 °FClear.9 mph41%29.93 "Hg10 mi
6:54 PM62 °FPartly sunny.13 mph39%29.91 "Hg10 mi
5:54 PM65 °FSunny.10 mph39%29.88 "Hg10 mi
4:54 PM68 °FSunny.14 mph36%29.86 "Hg10 mi
3:54 PM68 °FOvercast.8 mph35%29.85 "Hg10 mi
2:54 PM71 °FSunny.10 mph34%29.85 "Hg10 mi
1:54 PM70 °FScattered clouds.9 mph35%29.86 "Hg10 mi
12:54 PM69 °FPassing clouds.10 mph41%29.89 "Hg10 mi
11:54 AM67 °FSunny.10 mph49%29.91 "Hg10 mi
10:54 AM65 °FSunny.7 mph51%29.93 "Hg10 mi
9:54 AM61 °FSunny.7 mph62%29.93 "Hg10 mi
8:54 AM56 °FSunny.3 mph77%29.94 "Hg10 mi
7:54 AM49 °FClear.No wind93%29.93 "Hg10 mi
6:54 AM49 °FClear.No wind90%29.93 "Hg8 mi
Weather by CustomWeather, © 2014

See weather overviewHow to use our weather pages